KB1JDX Weather Reports


Display with metric or nautical units.
time (UTC)temp
F
wind
direction
speed
MPH
gust
MPH
rain 1hr
in
rain 24hr
in
rain mn
in
humidity
%
barometer
mb
20180220025432 47 210 0.0 10.0 0.00 0.00 0.00 78 1027.6
20180220015433 46 213 0.0 8.0 0.00 0.00 0.00 78 1027.8
20180220005432 45 196 0.0 7.0 0.00 0.00 0.00 78 1027.8
20180219235433 44 194 0.0 7.0 0.00 0.00 0.00 79 1027.8
20180219225433 44 205 0.0 0.0 0.00 0.00 0.00 79 1028.1
20180219215432 46 209 0.0 8.0 0.00 0.00 0.00 80 1028.8
20180219205432 47 213 0.0 13.0 0.00 0.00 0.00 76 1029.4
20180219195435 48 214 8.0 14.0 0.00 0.00 0.00 74 1029.6
20180219185432 48 191 14.0 19.0 0.00 0.00 0.00 70 1030.0
20180219175433 47 179 7.0 19.0 0.00 0.00 0.00 70 1031.5
20180219165433 46 216 9.0 20.0 0.00 0.00 0.00 69 1032.8
20180219155434 45 211 0.0 14.0 0.00 0.00 0.00 71 1033.0
20180219145433 40 269 0.0 0.0 0.00 0.00 0.00 78 1034.2
20180219135433 28 319 0.0 0.0 0.00 0.00 0.00 81 1034.6
20180219125435 22 317 0.0 0.0 0.00 0.00 0.00 81 1034.9
20180219115433 20 317 0.0 0.0 0.00 0.00 0.00 81 1035.2
20180219105433 20 317 0.0 0.0 0.00 0.00 0.00 81 1034.8
20180219095434 21 317 0.0 0.0 0.00 0.00 0.00 81 1034.5
20180219085435 22 317 0.0 0.0 0.00 0.00 0.00 81 1034.3
20180219075433 23 317 0.0 0.0 0.00 0.00 0.00 81 1033.9
20180219065435 24 317 0.0 0.0 0.00 0.00 0.00 81 1034.3
20180219055433 25 317 0.0 0.0 0.00 0.00 0.00 81 1033.7
20180219045429 26 317 0.0 0.0 0.00 0.00 0.00 81 1034.6
20180219035430 27 317 0.0 0.0 0.00 0.00 0.00 81 1034.2